Regional Weather Roundup
Issued by NWS

Home | Current Version | Previous Version | Graphics & Text | Print | Product List | Glossary On
Versions: 1 2 3 4 5 6 7 8 9 10 11 12 13 14 15 16 17 18 19 20 21 22 23 24 25 26 27 28 29 30 31 32 33 34 35 36 37 38 39 40 41 42 43 44 45 46 47 48 49 50
000
ASUS43 KLOT 101302
RWRIL

ILLINOIS REGIONAL WEATHER ROUNDUP
NATIONAL WEATHER SERVICE CHICAGO/ROMEOVILLE IL
700 AM CST SAT DEC 10 2016

NOTE: "FAIR" INDICATES FEW OR NO CLOUDS BELOW 12,000 FEET WITH NO
SIGNIFICANT WEATHER AND/OR OBSTRUCTIONS TO VISIBILITY.

* THESE STATIONS ARE NOT UNDER NWS QUALITY CONTROL. THEY ALSO MAY NOT
  REPORT WEATHER SUCH AS PRECIPITATION OR FOG.

ILZ001-002-007-009-015-016-024-101400-
NORTHWEST ILLINOIS

CITY           SKY/WX    TMP DP  RH WIND       PRES   REMARKS
MOLINE         CLOUDY    21  14  74 SW3       30.53F
STERLING*      CLOUDY    18  15  88 SW3       30.53R
SAVANNA*       CLOUDY    19  15  83 W3        30.52S
$$

ILZ003-004-008-010-011-017-018-101400-
NORTH CENTRAL ILLINOIS

CITY           SKY/WX    TMP DP  RH WIND       PRES   REMARKS
ROCKFORD       CLOUDY    17  13  84 SW3       30.52S
FREEPORT*      PTCLDY    14  12  89 SW3       30.52R
ROCHELLE*      CLOUDY    16  13  90 SW6       30.52R WCI   7
$$

ILZ005-006-012>014-019>023-101400-
NORTHEAST ILLINOIS

CITY           SKY/WX    TMP DP  RH WIND       PRES   REMARKS
CHICAGO-OHARE  MOCLDY    18  12  77 W8        30.50S WCI   8
CHICAGO-MIDWAY MOCLDY    20  10  65 W9        30.51F WCI   9
AURORA         CLOUDY    19  13  77 SW6       30.52R WCI  11
LANSING*       CLOUDY    20  16  86 W9        30.52S WCI   9
WAUKEGAN       CLOUDY    17  12  80 CALM      30.47F
DUPAGE AIRPORT CLOUDY    18  11  74 W5        30.49F WCI  11
KANKAKEE*      CLOUDY    21  15  78 CALM      30.54S
WHEELING       CLOUDY    18  11  74 W7        30.51F WCI   9
MORRIS*        CLOUDY    19  15  81 CALM      30.52F
NORTHERLY ISL    N/A     21  13  71 W6          N/A  WCI  14
$$

LMZ740>746-101400-
SOUTHERN LAKE MICHIGAN

STATION/POSITION SKY/WX   TEMP    WIND        PRES    VSBY  WAVE
                          AIR SEA DIR/SP/G                  HT/PER
                          (F)     (DEG/KT/KT) (MB)    (MI)  (FT/S)
BURNHAM HARBOR             20     270/  6/ 11   N/A
CALUMET HARBOR             20     230/  7/ 10 1032.3F
BURNS HARBOR               22     220/ 12/ 15 1033.2F
$$

ILZ025>027-034>036-040-047-049-050-058-095>099-101400-
WEST-CENTRAL ILLINOIS

CITY           SKY/WX    TMP DP  RH WIND       PRES   REMARKS
QUINCY         CLOUDY    23  14  68 S3        30.54S
GALESBURG*     CLOUDY    21  17  84 S3        30.53S
MACOMB*        CLOUDY    23  18  82 S3        30.56R
JACKSONVILLE*  CLOUDY    23  16  74 CALM      30.56F
PITTSFIELD*    CLOUDY    24  18  80 CALM      30.57R
$$

ILZ028>032-037-038-041>044-048-051>054-059>061-101400-
CENTRAL ILLINOIS

CITY           SKY/WX    TMP DP  RH WIND       PRES   REMARKS
PONTIAC        CLOUDY    22  16  78 W7        30.55S WCI  14
BLOOMINGTON    CLOUDY    21  15  78 W7        30.54S WCI  12
DECATUR        CLOUDY    22  16  78 SW5       30.56S WCI  16
PEORIA         CLOUDY    21  16  81 S3        30.54F
LACON*         CLOUDY    21  14  73 W3        30.54R
LINCOLN*       CLOUDY    23  17  77 CALM      30.56S
SPRINGFIELD    CLOUDY    24  16  71 CALM      30.56S
TAYLORVILLE    CLOUDY    23  18  81 CALM      30.56S
$$

ILZ033-039-045-046-055>057-062-063-101400-
EAST-CENTRAL ILLINOIS

CITY           SKY/WX    TMP DP  RH WIND       PRES   REMARKS
CHAMPAIGN      CLOUDY    22  15  75 W8        30.54F WCI  12
RANTOUL*       CLOUDY    24  17  77 W6        30.53F WCI  16
MATTOON        CLOUDY    22  16  78 SW3       30.55F
PARIS*         CLOUDY    22  18  85 W3        30.56F
$$

ILZ079-100>102-101400-
SOUTHWEST ILLINOIS

CITY           SKY/WX    TMP DP  RH WIND       PRES   REMARKS
ALTON          CLOUDY    23  18  80 E6        30.57F WCI  16
BELLEVILLE     CLOUDY    25  20  83 SE2       30.57S
CAHOKIA*       CLOUDY    26  17  68 SE5       30.57F WCI  20
SPARTA*        CLOUDY    25  20  81 CALM      30.59S
$$

ILZ064>066-069>071-074>076-080>082-084>086-088>090-092>094-101400-
SOUTH-CENTRAL ILLINOIS

CITY           SKY/WX    TMP DP  RH WIND       PRES   REMARKS
CARBONDALE     CLOUDY    21  19  92 CALM      30.60S
CAIRO*         CLOUDY    15  14  94 CALM      30.62R
EFFINGHAM*     CLOUDY    24  20  85 S3        30.59S
MARION         MOCLDY    23  19  86 CALM      30.60F
CENTRALIA*     CLOUDY    25  21  85 CALM      30.58S
SALEM*         CLOUDY    25  19  77 CALM      30.58S
METROPOLIS*    CLOUDY    15  13  92 CALM      30.63R
$$

ILZ067-068-072-073-078-083-087-091-101400-
SOUTHEAST ILLINOIS

CITY           SKY/WX    TMP DP  RH WIND       PRES   REMARKS
LAWRENCEVILLE  CLOUDY    24  17  74 SW5       30.59F WCI  18
FLORA*         CLOUDY    25  20  80 CALM      30.60S
FAIRFIELD*     CLOUDY    25  20  81 CALM      30.59F
HARRISBURG*    CLOUDY    25  22  89 CALM      30.61F
ROBINSON*      CLOUDY    22  17  81 W3        30.59F
CARMI*         CLOUDY    24  19  82 CALM      30.60F
$$

ABBREVIATIONS USED IN REMARKS
   TC - TEMPERATURE IN CELSIUS
  WCI - WIND CHILL INDEX
   HX - HEAT INDEX
  VSB - VISIBILITY
$$





USA.gov is the U.S. government's official web portal to all federal, state and local government web resources and services.